Tracking 23728 objects as of 23-Sep-2021
HD Live streaming from Space Station
objects crossing your sky now

STARLINK-1860

Track STARLINK-1860 now!
10-day predictions
STARLINK-1860 is classified as:


NORAD ID: 47147
Int'l Code: 2020-088AB
Perigee: 553.1 km
Apogee: 555.6 km
Inclination: 53.1 °
Period: 95.6 minutes
Semi major axis: 6925 km
RCS: Unknown
Launch date: November 25, 2020
Source: United States (US)
Launch site: AIR FORCE EASTERN TEST RANGE (AFETR)
aabbcc
Your satellite tracking list
Your tracking list is empty




NASA's NSSDC Master Catalog

Two Line Element Set (TLE):
1 47147U 20088AB  21265.67689014  .00001533  00000-0  12182-3 0  9997
2 47147  53.0578  54.5521 0001796  90.8031 269.3164 15.06402469 46311
Source of the keplerian elements: AFSPC